Regional Weather Roundup
Issued by NWS

Home | Current Version | Previous Version | Graphics & Text | Print | Product List | Glossary On
Versions: 1 2 3 4 5 6 7 8 9 10 11 12 13 14 15 16 17 18 19 20 21 22 23 24 25 26 27 28 29 30 31 32 33 34 35 36 37 38 39 40 41 42 43 44 45 46 47 48 49 50
000
ASUS43 KIND 021359
RWRIN

WEATHER ROUNDUP FOR INDIANA
NATIONAL WEATHER SERVICE INDIANAPOLIS IN
1000 AM EDT SUN AUG 02 2015

NOTE: "FAIR" INDICATES FEW OR NO CLOUDS BELOW 12,000 FEET WITH NO
SIGNIFICANT WEATHER AND/OR OBSTRUCTIONS TO VISIBILITY.

* - STATION DOES NOT REPORT WEATHER SUCH AS PRECIPITATION OR FOG.

+ - STATION NOT QUALITY CONTROLLED BY THE NATIONAL WEATHER SERVICE.
    USE DATA WITH CAUTION...ESPECIALLY DEWPOINT AND RELATIVE
    HUMIDITY OBSERVATIONS.

INZ001>003-010>013-019-020-021500-
NORTHWEST INDIANA

CITY           SKY/WX    TMP DP  RH WIND       PRES   REMARKS
GARY /AIRPORT/ MOSUNNY   79  66  65 SW12      29.87F
KNOX *+        SUNNY     75  64  69 SW13      29.90S
LA PORTE +     SUNNY     77  69  75 SW7       29.91S
MONTICELLO +   SUNNY     74  66  75 SW9       29.93S
RENSSELAER +   SUNNY     77  70  78 SW10G18   29.92S

$$

LMZ046-743>745-021500-
SOUTHERN LAKE MICHIGAN

STATION/POSITION TIME  TEMP    WIND        PRES    WAVE
                       AIR SEA DIR/SP/G            HT
                 (UTC) (F)     (DEG/KT/KT) (MB)    (FT)
BURNS HARBOR     1300   74     200/ 10/ 13 1012.2S
MICHIGAN CITY    1300   73     180/ 11/ 13   N/A
5NW MICH CITY    1300   73 73  220/ 12/ 16   N/A     2

$$

INZ004-005-014>016-021>024-021500-
NORTH CENTRAL INDIANA

CITY           SKY/WX    TMP DP  RH WIND       PRES   REMARKS
ELKHART        SUNNY     79  66  65 SW12      29.91S
GOSHEN         SUNNY     76  67  73 SW10      29.91S
LOGANSPORT +   SUNNY     73  61  64 SW9       29.95S
SOUTH BEND     MOSUNNY   76  66  71 SW15      29.90S
WARSAW +       SUNNY     77  64  65 SW9       29.92F

$$

INZ006>009-017-018-025>027-021500-
NORTHEAST INDIANA

CITY           SKY/WX    TMP DP  RH WIND       PRES   REMARKS
ANGOLA *+      SUNNY     79  70  73 W9        29.91F
FORT WAYNE     MOSUNNY   76  64  66 SW9       29.95S

$$

INZ028-029-035-036-043>045-051>053-021500-
WEST CENTRAL INDIANA

CITY           SKY/WX    TMP DP  RH WIND       PRES   REMARKS
CRAWFORDSVL +  SUNNY     73  61  66 SW7         N/A
GREENCASTLE +  SUNNY     73  61  64 CALM      29.99S
LAFAYETTE      SUNNY     74  65  73 W8        29.94S
TERRE HAUTE    SUNNY     77  64  64 SW9       29.98S

$$

INZ030>032-037>040-046>048-054>057-064-065-021500-
CENTRAL INDIANA

CITY           SKY/WX    TMP DP  RH WIND       PRES   REMARKS
COLUMBUS       SUNNY     75  59  57 SW7       29.99S
FRANKFORT +    SUNNY     76  67  73 S8        29.97S
GREENWOOD *+   SUNNY     77  59  53 SW7       30.00R
INDIANAPOLIS   MOSUNNY   77  62  59 SW10      29.97R
-EAGLE CREEK   SUNNY     76  62  62 SW8       29.97S
KOKOMO *+      SUNNY     77  63  61 SW13      29.96R
MT COMFORT *+  SUNNY     75  63  64 S5        29.99S
SHELBYVILLE    SUNNY     76  64  66 SW5       29.99R
ZIONSVILLE +   SUNNY     76  62  62 SW8       29.98S

$$

INZ033-034-041-042-049-050-058-059-021500-
EAST CENTRAL INDIANA

CITY           SKY/WX    TMP DP  RH WIND       PRES   REMARKS
MUNCIE         SUNNY     74  61  63 SW8G17    29.97S

$$

INZ060-061-067>069-081>083-085>088-021500-
SOUTHWEST INDIANA

CITY           SKY/WX    TMP DP  RH WIND       PRES   REMARKS
EVANSVILLE     SUNNY     78  61  55 S7        30.00R
HUNTINGBURG *+ SUNNY     75  63  64 S7        29.99S

$$

INZ062-063-066-070>080-084-089>092-021500-
SOUTH CENTRAL AND SOUTHEAST INDIANA

CITY           SKY/WX    TMP DP  RH WIND       PRES   REMARKS
BLOOMINGTON    SUNNY     77  62  59 SW6       29.99S
MADISON *+     SUNNY     77  61  57 S3        30.03S
SEYMOUR +      SUNNY     75  64  69 CALM      30.00R

$$




USA.gov is the U.S. government's official web portal to all federal, state and local government web resources and services.